Time,TemperatureF,DewpointF,PressureIn,WindDirection,WindDirectionDegrees,WindSpeedMPH,WindSpeedGustMPH,Humidity,HourlyPrecipIn,Conditions,Clouds,dailyrainin,SoftwareType,DateUTC
2013-01-23 00:02:00,12.0,4.0,30.43,SW,235,2.0,5.0,70,0.00,,,0.00,,2013-01-23 06:02:00,
2013-01-23 00:12:00,12.0,4.0,30.43,SW,235,2.0,5.0,70,0.00,,,0.00,,2013-01-23 06:12:00,
2013-01-23 00:22:00,12.0,4.0,30.43,WSW,252,4.0,7.0,68,0.00,,,0.00,,2013-01-23 06:22:00,
2013-01-23 00:32:00,12.0,4.0,30.42,WSW,248,3.0,6.0,68,0.00,,,0.00,,2013-01-23 06:32:00,
2013-01-23 00:42:00,12.0,4.0,30.42,WSW,248,3.0,6.0,68,0.00,,,0.00,,2013-01-23 06:42:00,
2013-01-23 00:52:00,13.0,5.0,30.42,WSW,246,3.0,6.0,69,0.00,,,0.00,,2013-01-23 06:52:00,
2013-01-23 01:02:00,13.0,5.0,30.41,WSW,248,3.0,5.0,69,0.00,,,0.00,,2013-01-23 07:02:00,
2013-01-23 01:12:00,13.0,5.0,30.41,WSW,248,3.0,5.0,69,0.00,,,0.00,,2013-01-23 07:12:00,
2013-01-23 01:22:00,13.0,4.0,30.41,SW,230,4.0,6.0,67,0.00,,,0.00,,2013-01-23 07:22:00,
2013-01-23 01:33:00,13.0,4.0,30.41,WSW,247,3.0,7.0,66,0.00,,,0.00,,2013-01-23 07:33:00,
2013-01-23 01:42:00,13.0,4.0,30.41,WSW,247,3.0,7.0,66,0.00,,,0.00,,2013-01-23 07:42:00,
2013-01-23 01:52:00,13.0,4.0,30.40,WSW,248,3.0,6.0,66,0.00,,,0.00,,2013-01-23 07:52:00,
2013-01-23 02:02:00,13.0,4.0,30.40,WSW,248,3.0,6.0,66,0.00,,,0.00,,2013-01-23 08:02:00,
2013-01-23 02:13:00,13.0,4.0,30.40,WSW,248,3.0,6.0,66,0.00,,,0.00,,2013-01-23 08:13:00,
2013-01-23 02:22:00,13.0,4.0,30.41,West,271,3.0,5.0,66,0.00,,,0.00,,2013-01-23 08:22:00,
2013-01-23 02:33:00,13.0,3.0,30.41,West,281,2.0,5.0,65,0.00,,,0.00,,2013-01-23 08:33:00,
2013-01-23 02:43:00,13.0,3.0,30.41,West,281,2.0,5.0,65,0.00,,,0.00,,2013-01-23 08:43:00,
2013-01-23 02:53:00,14.0,5.0,30.41,West,269,3.0,5.0,66,0.00,,,0.00,,2013-01-23 08:53:00,
2013-01-23 03:02:00,14.0,4.0,30.40,West,272,3.0,6.0,65,0.00,,,0.00,,2013-01-23 09:02:00,
2013-01-23 03:12:00,14.0,4.0,30.40,West,272,3.0,6.0,65,0.00,,,0.00,,2013-01-23 09:12:00,
2013-01-23 03:22:00,14.0,5.0,30.40,WSW,244,4.0,7.0,66,0.00,,,0.00,,2013-01-23 09:22:00,
2013-01-23 03:32:00,14.0,4.0,30.39,WSW,255,4.0,7.0,65,0.00,,,0.00,,2013-01-23 09:32:00,
2013-01-23 03:43:00,14.0,4.0,30.39,WSW,255,4.0,7.0,65,0.00,,,0.00,,2013-01-23 09:43:00,
2013-01-23 03:53:00,14.0,4.0,30.38,WSW,237,3.0,7.0,64,0.00,,,0.00,,2013-01-23 09:53:00,
2013-01-23 04:03:00,14.0,4.0,30.38,West,271,3.0,6.0,63,0.00,,,0.00,,2013-01-23 10:03:00,
2013-01-23 04:12:00,14.0,4.0,30.38,West,271,3.0,6.0,63,0.00,,,0.00,,2013-01-23 10:12:00,
2013-01-23 04:23:00,14.0,4.0,30.38,West,278,3.0,5.0,64,0.00,,,0.00,,2013-01-23 10:23:00,
2013-01-23 04:32:00,14.0,4.0,30.38,West,261,2.0,5.0,64,0.00,,,0.00,,2013-01-23 10:32:00,
2013-01-23 04:43:00,14.0,4.0,30.38,West,261,2.0,5.0,64,0.00,,,0.00,,2013-01-23 10:43:00,
2013-01-23 04:53:00,14.0,4.0,30.37,West,279,2.0,5.0,63,0.00,,,0.00,,2013-01-23 10:53:00,
2013-01-23 05:02:00,14.0,3.0,30.37,West,261,2.0,5.0,62,0.00,,,0.00,,2013-01-23 11:02:00,
2013-01-23 05:12:00,14.0,3.0,30.37,West,261,2.0,5.0,62,0.00,,,0.00,,2013-01-23 11:12:00,
2013-01-23 05:23:00,14.0,4.0,30.37,West,272,1.0,4.0,63,0.00,,,0.00,,2013-01-23 11:23:00,
2013-01-23 05:33:00,14.0,3.0,30.37,WSW,252,3.0,5.0,62,0.00,,,0.00,,2013-01-23 11:33:00,
2013-01-23 05:43:00,14.0,3.0,30.37,WSW,252,3.0,5.0,62,0.00,,,0.00,,2013-01-23 11:43:00,
2013-01-23 05:53:00,14.0,3.0,30.37,WSW,247,1.0,4.0,62,0.00,,,0.00,,2013-01-23 11:53:00,
2013-01-23 06:03:00,15.0,4.0,30.37,WSW,240,1.0,3.0,62,0.00,,,0.00,,2013-01-23 12:03:00,
2013-01-23 06:12:00,15.0,4.0,30.37,WSW,240,1.0,3.0,62,0.00,,,0.00,,2013-01-23 12:12:00,
2013-01-23 06:22:00,15.0,4.0,30.37,WSW,240,1.0,4.0,62,0.00,,,0.00,,2013-01-23 12:22:00,
2013-01-23 07:23:00,15.0,4.0,30.35,SSW,207,4.0,7.0,61,0.00,,,0.00,,2013-01-23 13:23:00,
2013-01-23 07:33:00,15.0,4.0,30.35,SW,227,2.0,7.0,61,0.00,,,0.00,,2013-01-23 13:33:00,
2013-01-23 07:42:00,15.0,4.0,30.35,SW,227,2.0,7.0,61,0.00,,,0.00,,2013-01-23 13:42:00,
2013-01-23 07:53:00,15.0,4.0,30.35,SW,215,4.0,6.0,60,0.00,,,0.00,,2013-01-23 13:53:00,
2013-01-23 08:02:00,16.0,5.0,30.35,SSW,210,6.0,9.0,61,0.00,,,0.00,,2013-01-23 14:02:00,
2013-01-23 08:12:00,16.0,5.0,30.35,SSW,210,6.0,9.0,61,0.00,,,0.00,,2013-01-23 14:12:00,
2013-01-23 08:23:00,16.0,6.0,30.34,SW,222,5.0,8.0,63,0.00,,,0.00,,2013-01-23 14:23:00,
2013-01-23 08:33:00,16.0,6.0,30.34,SSW,197,7.0,11.0,63,0.00,,,0.00,,2013-01-23 14:33:00,
2013-01-23 08:43:00,16.0,6.0,30.34,SSW,197,7.0,11.0,63,0.00,,,0.00,,2013-01-23 14:43:00,
2013-01-23 08:53:00,16.0,6.0,30.33,SSW,203,7.0,11.0,63,0.00,,,0.00,,2013-01-23 14:53:00,
2013-01-23 09:03:00,17.0,7.0,30.34,SW,214,8.0,11.0,63,0.00,,,0.00,,2013-01-23 15:03:00,
2013-01-23 09:12:00,17.0,7.0,30.34,SW,214,8.0,11.0,63,0.00,,,0.00,,2013-01-23 15:12:00,
2013-01-23 09:23:00,17.0,7.0,30.34,SSW,206,7.0,13.0,63,0.00,,,0.00,,2013-01-23 15:23:00,
2013-01-23 09:33:00,17.0,7.0,30.34,SSW,204,7.0,14.0,63,0.00,,,0.00,,2013-01-23 15:33:00,
2013-01-23 09:43:00,17.0,7.0,30.34,SSW,204,7.0,14.0,63,0.00,,,0.00,,2013-01-23 15:43:00,
2013-01-23 09:53:00,18.0,8.0,30.34,SSW,195,9.0,14.0,65,0.00,,,0.00,,2013-01-23 15:53:00,
2013-01-23 10:03:00,18.0,8.0,30.34,South,173,6.0,13.0,65,0.00,,,0.00,,2013-01-23 16:03:00,
2013-01-23 10:12:00,18.0,8.0,30.34,South,173,6.0,13.0,65,0.00,,,0.00,,2013-01-23 16:12:00,
2013-01-23 10:23:00,19.0,9.0,30.33,SSW,209,7.0,14.0,65,0.00,,,0.00,,2013-01-23 16:23:00,
2013-01-23 10:32:00,20.0,10.0,30.33,SSW,193,6.0,11.0,65,0.00,,,0.00,,2013-01-23 16:32:00,
2013-01-23 10:42:00,20.0,10.0,30.33,SSW,193,6.0,11.0,65,0.00,,,0.00,,2013-01-23 16:42:00,
2013-01-23 10:53:00,20.0,9.0,30.33,SSW,204,6.0,10.0,63,0.00,,,0.00,,2013-01-23 16:53:00,
2013-01-23 11:03:00,21.0,10.0,30.31,South,180,5.0,11.0,63,0.00,,,0.00,,2013-01-23 17:03:00,
2013-01-23 11:12:00,21.0,10.0,30.31,South,180,5.0,11.0,63,0.00,,,0.00,,2013-01-23 17:12:00,
2013-01-23 11:23:00,21.0,10.0,30.30,SSW,201,7.0,12.0,62,0.00,,,0.00,,2013-01-23 17:23:00,
2013-01-23 11:33:00,22.0,11.0,30.29,SW,223,7.0,12.0,63,0.00,,,0.00,,2013-01-23 17:33:00,
2013-01-23 11:42:00,22.0,11.0,30.29,SW,223,7.0,12.0,63,0.00,,,0.00,,2013-01-23 17:42:00,
2013-01-23 11:53:00,22.0,11.0,30.29,SSW,209,8.0,12.0,62,0.00,,,0.00,,2013-01-23 17:53:00,
2013-01-23 12:03:00,23.0,12.0,30.27,SSW,205,9.0,14.0,62,0.00,,,0.00,,2013-01-23 18:03:00,
2013-01-23 12:12:00,23.0,12.0,30.27,SSW,205,9.0,14.0,62,0.00,,,0.00,,2013-01-23 18:12:00,
2013-01-23 12:23:00,24.0,13.0,30.26,SW,229,6.0,15.0,61,0.00,,,0.00,,2013-01-23 18:23:00,
2013-01-23 12:33:00,24.0,13.0,30.26,SW,229,6.0,15.0,61,0.00,,,0.00,,2013-01-23 18:33:00,
2013-01-23 12:43:00,26.0,14.0,30.24,SSW,203,6.0,13.0,60,0.00,,,0.00,,2013-01-23 18:43:00,
2013-01-23 12:53:00,28.0,14.0,30.22,SSW,202,9.0,12.0,56,0.00,,,0.00,,2013-01-23 18:53:00,
2013-01-23 13:03:00,27.0,13.0,30.22,SSW,212,5.0,13.0,56,0.00,,,0.00,,2013-01-23 19:03:00,
2013-01-23 13:13:00,27.0,13.0,30.22,SSW,212,5.0,13.0,56,0.00,,,0.00,,2013-01-23 19:13:00,
2013-01-23 13:23:00,29.0,15.0,30.21,WSW,242,9.0,16.0,56,0.00,,,0.00,,2013-01-23 19:23:00,
2013-01-23 15:33:00,33.0,18.0,30.15,WSW,253,10.0,13.0,53,0.00,,,0.00,,2013-01-23 21:33:00,
2013-01-23 15:42:00,33.0,18.0,30.15,WSW,253,10.0,13.0,53,0.00,,,0.00,,2013-01-23 21:42:00,
2013-01-23 15:53:00,33.0,18.0,30.15,WSW,253,10.0,13.0,53,0.00,,,0.00,,2013-01-23 21:53:00,
2013-01-23 16:02:00,33.0,18.0,30.16,West,281,9.0,16.0,53,0.00,,,0.00,,2013-01-23 22:02:00,
2013-01-23 16:12:00,33.0,18.0,30.16,West,281,9.0,16.0,53,0.00,,,0.00,,2013-01-23 22:12:00,
2013-01-23 16:23:00,33.0,18.0,30.17,WNW,284,7.0,15.0,53,0.00,,,0.00,,2013-01-23 22:23:00,
2013-01-23 16:33:00,33.0,18.0,30.16,WNW,298,9.0,17.0,54,0.00,,,0.00,,2013-01-23 22:33:00,
2013-01-23 16:42:00,33.0,18.0,30.16,WNW,298,9.0,17.0,54,0.00,,,0.00,,2013-01-23 22:42:00,
2013-01-23 16:53:00,32.0,17.0,30.17,WNW,288,10.0,18.0,54,0.00,,,0.00,,2013-01-23 22:53:00,
2013-01-23 17:03:00,31.0,17.0,30.17,West,279,9.0,16.0,56,0.00,,,0.00,,2013-01-23 23:03:00,
2013-01-23 17:12:00,31.0,17.0,30.17,West,279,9.0,16.0,56,0.00,,,0.00,,2013-01-23 23:12:00,
2013-01-23 17:23:00,30.0,17.0,30.17,West,275,6.0,12.0,58,0.00,,,0.00,,2013-01-23 23:23:00,
2013-01-23 17:33:00,29.0,17.0,30.16,WSW,256,4.0,8.0,61,0.00,,,0.00,,2013-01-23 23:33:00,
2013-01-23 17:43:00,29.0,17.0,30.16,WSW,256,4.0,8.0,61,0.00,,,0.00,,2013-01-23 23:43:00,
2013-01-23 17:53:00,29.0,18.0,30.16,WNW,299,5.0,8.0,63,0.00,,,0.00,,2013-01-23 23:53:00,
2013-01-23 18:03:00,29.0,18.0,30.17,NW,304,8.0,14.0,63,0.00,,,0.00,,2013-01-24 00:03:00,
2013-01-23 18:12:00,29.0,18.0,30.17,NW,304,8.0,14.0,63,0.00,,,0.00,,2013-01-24 00:12:00,
2013-01-23 18:22:00,29.0,18.0,30.18,WNW,294,9.0,16.0,64,0.00,,,0.00,,2013-01-24 00:22:00,
2013-01-23 18:32:00,29.0,18.0,30.19,NW,321,8.0,14.0,63,0.00,,,0.00,,2013-01-24 00:32:00,
2013-01-23 18:42:00,29.0,18.0,30.19,NW,321,8.0,14.0,63,0.00,,,0.00,,2013-01-24 00:42:00,
2013-01-23 18:53:00,29.0,18.0,30.20,NW,306,6.0,12.0,64,0.00,,,0.00,,2013-01-24 00:53:00,
2013-01-23 19:03:00,28.0,18.0,30.20,NW,315,9.0,13.0,66,0.00,,,0.00,,2013-01-24 01:03:00,
2013-01-23 19:12:00,28.0,18.0,30.20,NW,315,9.0,13.0,66,0.00,,,0.00,,2013-01-24 01:12:00,
2013-01-23 19:23:00,28.0,18.0,30.21,WNW,293,8.0,14.0,67,0.00,,,0.00,,2013-01-24 01:23:00,
2013-01-23 19:33:00,27.0,18.0,30.22,NW,324,10.0,15.0,69,0.00,,,0.00,,2013-01-24 01:33:00,
2013-01-23 19:42:00,27.0,18.0,30.22,NW,324,10.0,15.0,69,0.00,,,0.00,,2013-01-24 01:42:00,
2013-01-23 19:52:00,27.0,18.0,30.23,NNW,333,10.0,16.0,69,0.00,,,0.00,,2013-01-24 01:52:00,
2013-01-23 20:02:00,26.0,17.0,30.23,NW,307,10.0,16.0,69,0.00,,,0.00,,2013-01-24 02:02:00,
2013-01-23 20:12:00,26.0,17.0,30.23,NW,307,10.0,16.0,69,0.00,,,0.00,,2013-01-24 02:12:00,
2013-01-23 20:22:00,26.0,18.0,30.24,NW,319,9.0,14.0,70,0.00,,,0.00,,2013-01-24 02:22:00,
2013-01-23 20:33:00,25.0,17.0,30.24,NW,322,6.0,13.0,71,0.00,,,0.00,,2013-01-24 02:33:00,
2013-01-23 20:42:00,25.0,17.0,30.24,NW,322,6.0,13.0,71,0.00,,,0.00,,2013-01-24 02:42:00,
2013-01-23 20:52:00,25.0,17.0,30.24,NW,322,6.0,13.0,71,0.00,,,0.00,,2013-01-24 02:52:00,
2013-01-23 21:02:00,24.0,16.0,30.26,NW,306,9.0,16.0,72,0.00,,,0.00,,2013-01-24 03:02:00,
2013-01-23 21:12:00,24.0,16.0,30.26,NW,306,9.0,16.0,72,0.00,,,0.00,,2013-01-24 03:12:00,
2013-01-23 21:22:00,24.0,16.0,30.27,NW,318,9.0,17.0,70,0.00,,,0.00,,2013-01-24 03:22:00,
2013-01-23 21:33:00,24.0,15.0,30.27,NNW,346,9.0,17.0,68,0.00,,,0.00,,2013-01-24 03:33:00,
2013-01-23 21:43:00,24.0,15.0,30.27,NNW,346,9.0,17.0,68,0.00,,,0.00,,2013-01-24 03:43:00,
2013-01-23 21:53:00,23.0,13.0,30.28,NNW,332,9.0,22.0,66,0.00,,,0.00,,2013-01-24 03:53:00,
2013-01-23 22:02:00,22.0,12.0,30.28,NW,321,10.0,22.0,66,0.00,,,0.00,,2013-01-24 04:02:00,
2013-01-23 22:12:00,22.0,12.0,30.28,NW,321,10.0,22.0,66,0.00,,,0.00,,2013-01-24 04:12:00,
2013-01-23 22:22:00,22.0,13.0,30.30,NNE,16,10.0,19.0,67,0.00,,,0.00,,2013-01-24 04:22:00,
2013-01-23 22:32:00,21.0,11.0,30.31,NNW,327,9.0,17.0,66,0.00,,,0.00,,2013-01-24 04:32:00,
2013-01-23 22:42:00,21.0,11.0,30.31,NNW,327,9.0,17.0,66,0.00,,,0.00,,2013-01-24 04:42:00,
2013-01-23 22:53:00,20.0,11.0,30.34,NNW,346,7.0,18.0,68,0.00,,,0.00,,2013-01-24 04:53:00,
2013-01-23 23:03:00,20.0,11.0,30.34,North,5,9.0,16.0,69,0.00,,,0.00,,2013-01-24 05:03:00,
2013-01-23 23:12:00,20.0,11.0,30.34,North,5,9.0,16.0,69,0.00,,,0.00,,2013-01-24 05:12:00,
2013-01-23 23:22:00,19.0,11.0,30.35,North,355,9.0,15.0,70,0.00,,,0.00,,2013-01-24 05:22:00,
2013-01-23 23:33:00,18.0,10.0,30.36,NNW,338,8.0,18.0,70,0.00,,,0.00,,2013-01-24 05:33:00,
2013-01-23 23:42:00,18.0,10.0,30.36,NNW,338,8.0,18.0,70,0.00,,,0.00,,2013-01-24 05:42:00,
2013-01-23 23:53:00,18.0,10.0,30.37,NNE,18,8.0,16.0,70,0.00,,,0.00,,2013-01-24 05:53:00,